Wetbulb
73.66 73.44 73.22 73.75 74.03 74.65 74.46 75.06 75.17 73.19 72.72 72.10 71.11 69.83 69.52 68.70 66.87 65.02 63.75 63.38 62.39 61.88 62.16 60.87 60.44 61.30 60.70 60.90 60.34 59.61 59.00 58.45 55.62 57.62 58.75 59.57 58.96 59.32 60.28 61.07 62.66 61.35 61.54
74.33 74.05 74.29 74.84 75.24 75.36 75.45 74.69 74.15 72.38 73.12 71.20 69.80 67.95 65.96 64.02 62.33 61.11 60.04 60.28 59.88 58.97 59.14 59.09 59.46 61.34 58.71 58.86 59.47 58.51 58.13 57.94 56.31 54.98 57.04 57.62 57.74 59.03 59.24 59.45 61.15 62.65 61.42
74.56 74.88 75.10 75.24 74.90 74.26 73.17 72.52 72.87 72.03 69.50 68.64 66.02 63.45 60.96 58.89 57.66 57.65 57.39 57.37 57.16 57.50 57.76 59.30 58.93 58.22 57.14 57.13 56.62 56.42 56.22 56.89 56.29 55.69 54.94 56.97 56.96 58.84 59.10 59.26 59.40 59.79 61.05
74.90 75.32 74.94 73.21 72.66 72.80 72.87 71.24 69.58 68.75 65.59 64.53 63.90 59.52 57.08 55.74 55.72 55.54 55.26 54.26 54.82 57.09 58.94 58.68 58.15 57.34 55.29 54.41 54.73 54.50 54.16 53.05 53.49 53.59 54.12 55.21 55.73 57.30 57.52 56.40 56.67 57.38 58.41
75.30 74.64 72.41 72.09 71.91 70.67 69.59 69.04 67.24 65.19 64.48 64.13 61.50 57.54 55.54 55.29 55.35 53.12 52.62 52.16 53.00 55.32 57.70 58.78 58.51 59.04 57.67 55.68 52.50 51.43 51.24 51.28 53.13 54.53 54.57 54.34 54.12 55.30 55.69 57.18 55.71 57.36 57.67
73.69 72.24 71.86 71.17 69.66 68.73 68.33 66.29 65.24 64.69 63.79 64.02 60.08 56.93 54.25 54.50 55.22 56.53 54.91 51.21 53.24 54.91 56.24 56.30 56.00 56.21 51.97 52.31 52.44 53.08 53.32 52.75 53.55 54.58 52.60 50.61 51.99 53.79 55.69 55.73 56.41 56.11 54.51
71.54 71.11 70.38 69.12 68.50 67.22 66.09 65.01 64.20 63.88 62.13 61.08 58.90 56.63 53.25 51.15 54.28 54.49 56.12 52.29 54.37 54.49 54.90 54.16 54.02 52.02 48.70 47.38 48.41 49.51 51.33 53.63 53.45 53.07 50.02 50.03 50.47 53.36 54.35 55.01 55.54 55.71 55.25
70.10 69.75 69.14 68.19 66.63 65.63 64.68 64.12 63.61 62.30 60.72 59.44 58.74 55.52 51.18 50.62 53.09 52.84 54.59 51.49 53.01 53.74 52.61 51.40 48.51 46.80 46.50 46.91 45.15 44.35 46.66 47.68 47.83 49.07 49.88 50.62 51.90 52.98 54.15 55.43 56.17 56.19 56.28
69.19 68.92 67.50 66.10 65.08 63.95 63.17 62.83 62.62 60.47 60.71 59.35 59.41 54.78 50.97 48.07 51.64 51.62 50.93 50.42 50.19 50.57 51.75 49.64 47.14 45.34 49.42 48.84 43.77 42.67 44.38 44.43 48.50 50.42 51.19 52.85 53.77 55.12 55.50 51.99 51.66 52.38 52.01
68.41 66.92 65.96 65.03 64.05 62.55 61.99 61.28 61.70 59.47 58.85 59.59 58.70 55.08 52.46 47.57 50.46 50.18 50.68 49.54 47.79 48.98 50.65 50.05 51.43 48.34 48.88 48.02 42.82 41.24 41.90 41.93 43.41 46.00 48.03 49.67 50.04 50.17 53.29 49.43 50.55 52.13 51.08
66.77 65.42 64.92 63.86 62.74 62.59 61.94 61.00 59.82 58.73 58.26 57.76 57.42 53.86 50.90 48.85 48.13 49.56 50.18 48.26 47.95 47.97 48.38 49.03 49.18 49.87 47.98 46.86 46.98 41.99 42.51 45.48 46.24 45.34 47.16 47.77 47.73 48.31 48.70 50.66 52.31 53.09 51.94
64.60 63.65 63.04 62.11 63.11 62.60 60.45 59.17 59.33 58.32 57.63 55.06 56.64 54.10 52.01 49.50 49.78 49.07 49.05 49.46 50.82 47.07 47.50 47.42 48.81 48.06 46.14 45.83 46.70 47.66 48.35 49.30 44.30 45.35 45.54 45.99 47.14 48.15 49.19 50.46 51.23 52.07 54.15
62.96 62.16 61.14 61.73 61.43 60.64 59.11 57.66 56.83 56.60 55.34 50.30 52.41 52.83 49.06 49.63 46.52 48.85 48.32 49.38 50.72 47.63 47.35 49.05 50.17 48.08 46.64 45.98 47.99 49.18 48.53 44.16 43.96 44.12 44.63 45.13 47.21 48.72 49.50 50.02 51.02 52.38 53.31
61.64 61.26 60.79 60.30 59.30 59.39 55.53 51.03 47.56 48.34 47.64 47.57 47.56 47.20 48.75 45.02 42.09 42.44 43.45 44.16 47.86 46.76 47.09 44.80 48.61 49.80 48.90 47.80 44.88 44.88 43.64 44.35 44.88 42.90 44.47 45.46 46.93 47.38 47.71 49.04 49.12 50.50 50.98
60.81 59.91 59.05 56.58 49.57 48.16 46.31 45.26 44.18 41.11 45.95 44.92 45.76 45.27 44.43 40.81 41.12 41.28 40.61 40.88 41.39 42.92 43.42 44.00 41.68 41.30 40.59 40.72 41.17 42.21 42.40 43.38 41.81 43.80 43.99 44.73 45.04 46.19 46.68 48.55 49.13 49.78 49.05
59.25 59.12 57.12 52.06 48.50 45.89 44.34 41.74 45.81 44.57 44.00 42.50 43.51 45.16 42.67 42.92 41.92 41.56 41.18 40.80 41.20 42.31 42.05 41.82 41.19 40.94 40.03 39.98 40.11 40.41 41.14 44.22 41.94 43.09 43.90 44.06 44.17 45.06 45.74 47.90 49.14 48.68 48.57
58.86 57.60 54.40 50.56 48.87 45.97 44.11 42.75 41.14 42.39 44.31 43.42 42.39 42.87 43.02 42.41 41.72 41.48 41.15 41.00 41.03 42.23 42.22 40.99 40.94 40.93 40.67 40.74 40.95 40.57 40.30 43.07 41.50 41.85 42.35 42.94 44.07 45.45 46.40 47.08 48.25 48.42 48.41
58.55 55.46 55.28 51.59 48.71 47.85 47.64 46.81 44.78 43.40 42.92 41.55 42.35 41.79 41.63 41.84 41.90 43.32 40.75 42.78 43.77 42.09 41.72 41.79 40.79 41.12 41.19 41.02 41.57 41.00 41.11 41.48 40.60 41.37 41.85 42.97 44.47 45.09 45.63 46.44 46.86 47.45 47.91
55.07 54.53 53.81 54.67 52.54 52.02 51.63 50.94 48.83 46.90 46.85 45.89 44.25 41.51 42.40 40.91 41.11 41.19 40.57 41.68 42.57 41.59 41.82 41.75 42.69 42.50 42.36 43.03 42.48 42.00 41.33 39.75 39.94 39.72 41.15 42.64 44.45 44.31 44.72 46.53 46.65 46.54 46.65
53.38 54.61 52.69 51.21 50.93 50.73 50.41 49.66 50.47 49.67 49.02 48.16 46.30 43.93 45.26 45.32 44.33 45.02 45.56 43.38 42.41 42.04 42.37 42.12 42.75 43.27 42.71 42.74 41.76 40.86 40.00 38.63 38.65 39.74 40.58 42.27 43.27 43.35 43.60 45.61 46.02 46.31 47.09
52.02 52.99 53.72 50.19 49.20 49.32 49.35 49.44 49.27 48.65 49.00 49.67 44.50 42.07 42.09 42.05 43.80 43.91 43.39 42.41 42.49 42.62 42.54 43.01 42.37 41.84 42.09 41.57 40.55 40.17 38.69 37.90 38.03 38.75 39.38 40.86 41.79 41.62 43.60 45.65 45.71 46.33 47.16
52.15 51.07 50.77 49.45 49.26 49.36 50.15 50.15 48.80 49.64 48.69 45.24 42.63 39.83 41.23 40.76 42.57 42.62 42.63 42.57 43.55 43.43 43.45 43.24 42.44 41.83 41.54 40.35 39.63 38.92 37.35 36.69 37.41 37.52 37.99 39.98 39.88 41.64 43.89 44.36 45.00 45.40 46.04
52.41 51.86 51.33 50.93 52.18 51.24 51.40 49.76 50.77 50.23 47.65 43.33 41.47 41.29 40.43 40.87 41.85 42.31 42.64 43.37 43.80 43.51 44.25 44.17 42.19 41.23 40.61 39.56 39.11 38.06 36.14 35.73 35.72 35.62 36.45 37.44 38.35 41.64 43.39 43.31 44.10 44.25 44.84
51.50 50.37 50.54 50.82 50.81 49.99 50.50 47.98 49.79 48.20 47.13 45.62 43.63 42.35 42.14 42.62 43.13 42.93 43.20 43.35 43.26 43.91 44.45 43.36 41.76 39.96 38.56 37.57 37.59 37.16 36.42 34.17 33.01 34.56 35.22 35.40 38.61 41.52 42.33 42.50 43.26 43.84 44.47
52.56 52.20 51.01 51.46 49.87 50.18 49.98 50.13 48.63 46.77 46.37 44.66 43.18 42.85 42.18 42.74 42.57 43.43 42.82 43.30 43.44 43.53 43.93 41.86 40.33 39.50 38.47 37.78 36.67 35.96 33.53 31.68 31.80 34.19 34.80 36.93 40.21 40.17 40.38 41.02 42.18 43.31 44.01
52.05 51.05 51.08 50.04 48.88 47.94 48.23 47.50 47.33 46.62 46.36 43.98 43.00 42.52 42.78 42.91 42.98 43.49 43.04 42.78 42.45 43.34 44.01 40.86 39.30 39.10 38.35 37.24 36.06 34.53 32.33 31.84 33.80 33.13 37.44 40.87 40.21 40.32 40.06 40.34 42.02 42.09 42.53
MSLP
1012.69 1013.20 1013.71 1014.14 1014.53 1014.84 1015.05 1015.17 1015.37 1015.65 1015.96 1016.34 1016.46 1016.58 1016.64 1016.81 1017.00 1017.07 1017.22 1017.50 1017.54 1017.45 1017.18 1017.07 1016.81 1016.45 1016.57 1016.29 1016.10 1015.84 1015.63 1015.52 1015.14 1013.67 1013.44 1012.82 1012.29 1011.86 1011.19 1010.66 1010.29 1009.96 1009.51
1011.73 1012.42 1013.01 1013.47 1013.79 1014.16 1014.57 1014.94 1015.21 1015.60 1015.72 1015.78 1016.01 1016.43 1017.03 1017.55 1017.77 1017.98 1018.12 1018.16 1018.09 1017.87 1017.70 1017.41 1017.24 1016.97 1016.93 1016.69 1016.29 1016.20 1016.09 1015.69 1015.64 1014.54 1013.78 1012.86 1012.29 1011.76 1011.19 1010.59 1009.93 1009.28 1009.06
1010.90 1011.69 1012.31 1012.74 1013.25 1013.85 1014.37 1014.72 1015.06 1015.35 1015.76 1016.26 1016.64 1017.33 1017.68 1017.88 1018.28 1018.63 1018.63 1018.45 1018.30 1018.13 1017.93 1017.66 1017.58 1017.44 1017.45 1017.25 1016.86 1016.52 1016.30 1015.89 1015.42 1014.87 1013.89 1013.11 1012.26 1011.68 1011.05 1010.44 1009.84 1009.27 1008.84
1010.36 1011.17 1011.79 1012.44 1013.07 1013.56 1014.07 1014.56 1014.94 1015.37 1015.82 1016.21 1016.91 1017.85 1018.33 1018.66 1018.72 1018.87 1018.86 1018.73 1018.55 1018.35 1018.07 1017.82 1017.69 1017.82 1017.90 1017.78 1017.30 1016.99 1016.63 1016.06 1015.40 1014.78 1014.07 1013.15 1012.70 1011.82 1011.57 1011.11 1010.32 1009.84 1009.19
1010.20 1010.98 1011.80 1012.48 1013.18 1013.83 1014.31 1014.83 1015.26 1015.74 1016.28 1016.77 1017.43 1018.20 1018.80 1019.08 1019.40 1019.19 1019.20 1018.92 1018.66 1018.40 1018.21 1018.14 1018.06 1018.20 1018.12 1017.96 1017.61 1017.14 1016.93 1016.20 1015.48 1014.71 1014.19 1013.62 1012.93 1012.29 1011.86 1011.44 1010.91 1009.98 1009.06
1010.15 1011.19 1012.04 1012.81 1013.54 1014.22 1014.76 1015.35 1015.88 1016.54 1016.91 1017.30 1018.04 1018.61 1019.13 1019.61 1019.56 1019.29 1019.22 1018.99 1018.82 1018.50 1018.55 1018.65 1018.56 1018.60 1018.76 1018.07 1017.62 1017.30 1017.00 1016.08 1015.48 1014.83 1014.62 1014.22 1013.47 1012.87 1012.13 1011.69 1010.96 1010.32 1009.20
1010.45 1011.55 1012.44 1013.15 1013.98 1014.53 1015.15 1015.80 1016.51 1017.01 1017.58 1018.08 1018.52 1018.86 1019.46 1019.70 1019.47 1019.17 1019.11 1019.05 1018.93 1018.84 1018.92 1018.85 1018.95 1019.13 1018.91 1018.41 1017.93 1017.51 1017.00 1016.27 1015.77 1015.47 1015.06 1014.41 1013.65 1012.77 1012.31 1011.38 1010.95 1010.59 1009.95
1010.86 1011.79 1012.57 1013.39 1014.19 1014.90 1015.63 1016.30 1016.78 1017.24 1017.66 1018.14 1018.81 1019.41 1019.73 1020.15 1019.89 1019.54 1019.19 1019.16 1019.07 1018.92 1019.13 1019.13 1019.10 1019.14 1018.83 1018.52 1017.95 1017.14 1016.67 1016.12 1015.51 1015.14 1014.85 1014.05 1013.32 1012.46 1012.12 1011.50 1010.60 1010.09 1009.30
1011.32 1012.10 1012.86 1013.60 1014.50 1015.38 1016.14 1016.72 1017.07 1017.42 1017.76 1018.16 1018.88 1019.56 1019.94 1020.12 1020.11 1019.92 1019.43 1019.31 1019.10 1019.05 1019.08 1019.02 1019.03 1019.00 1018.65 1018.36 1018.10 1017.38 1016.33 1015.74 1015.13 1014.72 1014.11 1013.29 1012.51 1011.80 1011.20 1010.75 1010.25 1009.79 1008.90
1011.65 1012.46 1013.11 1013.97 1015.01 1015.84 1016.42 1016.86 1017.18 1017.42 1017.76 1018.15 1019.06 1019.61 1020.04 1020.41 1020.36 1020.26 1019.98 1019.69 1019.64 1019.54 1019.24 1019.20 1019.00 1018.75 1018.38 1018.15 1018.09 1017.70 1016.89 1015.86 1015.24 1014.34 1013.50 1012.65 1011.93 1011.32 1010.62 1010.36 1010.09 1009.77 1009.02
1011.78 1012.73 1013.69 1014.58 1015.39 1015.98 1016.51 1016.97 1017.43 1017.73 1018.00 1018.53 1019.08 1019.72 1020.15 1020.26 1020.34 1020.47 1020.21 1019.95 1020.02 1019.97 1019.73 1019.28 1019.03 1018.60 1018.23 1017.88 1017.66 1017.30 1016.89 1016.17 1015.38 1014.76 1013.75 1012.61 1011.96 1011.39 1010.71 1010.11 1009.59 1009.33 1008.86
1012.10 1013.26 1014.27 1014.94 1015.53 1016.14 1016.76 1017.35 1017.69 1017.91 1018.26 1018.65 1019.36 1019.92 1020.39 1020.43 1020.33 1020.40 1020.34 1020.18 1020.24 1020.15 1020.00 1019.45 1019.00 1018.57 1018.07 1017.74 1017.42 1016.84 1016.38 1015.73 1015.09 1014.57 1013.82 1012.87 1012.05 1011.34 1010.62 1009.92 1009.06 1008.28 1007.75
1012.55 1013.70 1014.66 1015.27 1015.89 1016.54 1017.27 1017.80 1017.95 1018.11 1018.58 1019.09 1019.62 1020.17 1020.65 1020.71 1020.61 1020.29 1020.08 1020.20 1020.31 1020.13 1019.92 1019.41 1018.72 1018.36 1018.29 1017.84 1017.56 1017.16 1016.54 1015.96 1015.22 1014.52 1014.00 1013.27 1012.37 1011.45 1010.58 1009.69 1008.59 1007.42 1006.71
1012.91 1013.95 1014.80 1015.43 1016.20 1016.75 1017.42 1018.06 1018.48 1018.53 1018.80 1019.13 1019.49 1020.02 1020.57 1020.86 1020.42 1020.22 1020.20 1020.17 1020.35 1020.12 1019.87 1019.19 1018.76 1018.41 1018.28 1018.12 1017.70 1017.37 1016.95 1016.46 1015.80 1014.96 1014.16 1013.42 1012.60 1011.63 1010.66 1009.74 1008.87 1007.45 1006.48
1013.09 1014.06 1014.94 1015.73 1016.50 1017.32 1018.09 1018.31 1018.39 1018.66 1018.50 1018.77 1019.20 1019.69 1019.99 1020.46 1020.58 1020.35 1020.26 1020.27 1020.50 1020.41 1020.11 1019.37 1018.96 1018.81 1018.62 1018.48 1018.16 1017.61 1017.17 1016.54 1016.19 1015.41 1014.54 1013.69 1012.83 1011.98 1010.94 1009.84 1008.86 1007.74 1006.88
1013.23 1014.17 1015.02 1015.98 1016.89 1017.52 1018.03 1018.78 1018.91 1018.84 1018.82 1018.95 1018.95 1019.09 1019.60 1019.87 1020.22 1020.28 1020.12 1019.86 1020.00 1020.15 1020.17 1019.87 1019.37 1019.10 1019.02 1018.76 1018.53 1018.11 1017.38 1016.83 1016.42 1015.83 1015.08 1014.29 1013.41 1012.43 1011.43 1010.02 1009.07 1008.16 1007.12
1012.98 1013.92 1014.80 1015.75 1016.67 1017.39 1018.17 1018.89 1019.56 1019.91 1019.93 1019.85 1019.90 1019.06 1019.70 1020.15 1020.31 1020.25 1020.12 1019.83 1019.39 1019.72 1020.14 1019.76 1019.40 1019.13 1018.96 1018.83 1018.66 1018.42 1017.89 1017.30 1016.68 1016.10 1015.62 1014.84 1013.89 1012.78 1011.72 1010.60 1009.42 1008.42 1007.36
1012.87 1013.65 1014.49 1015.43 1016.33 1017.17 1017.91 1018.53 1019.14 1019.54 1019.91 1020.20 1020.04 1019.55 1019.34 1019.71 1019.93 1019.91 1019.82 1019.52 1019.82 1019.86 1019.82 1019.87 1019.48 1019.02 1018.83 1018.74 1018.62 1018.32 1017.90 1017.46 1017.03 1016.50 1015.89 1015.23 1014.27 1013.39 1012.22 1011.06 1009.79 1008.86 1007.82
1012.52 1013.23 1014.01 1014.90 1015.72 1016.46 1017.22 1017.90 1018.42 1018.96 1019.12 1019.56 1020.12 1019.95 1019.59 1019.62 1019.76 1019.89 1019.82 1020.18 1020.12 1019.98 1019.81 1019.79 1019.42 1019.12 1019.01 1018.88 1018.67 1018.28 1018.05 1017.80 1017.38 1016.91 1016.31 1015.62 1014.68 1013.88 1012.76 1011.49 1010.33 1009.18 1008.29
1012.29 1012.81 1013.52 1014.38 1015.08 1015.76 1016.27 1016.94 1017.59 1017.90 1018.42 1019.19 1019.54 1019.57 1019.39 1019.77 1019.77 1019.68 1019.60 1019.57 1019.84 1019.96 1019.58 1019.72 1019.53 1019.22 1019.03 1018.97 1018.83 1018.50 1018.41 1018.17 1017.74 1017.18 1016.58 1015.90 1015.07 1014.23 1013.23 1011.98 1010.74 1009.77 1008.80
1012.25 1012.83 1013.34 1014.08 1014.78 1015.25 1015.54 1016.07 1016.42 1016.79 1017.43 1018.08 1018.56 1018.50 1018.81 1019.16 1019.12 1019.08 1019.36 1019.47 1019.60 1019.77 1019.59 1019.56 1019.67 1019.58 1019.40 1019.38 1019.18 1018.91 1018.77 1018.55 1018.20 1017.60 1016.93 1016.18 1015.39 1014.59 1013.37 1012.19 1011.14 1010.27 1009.44
1012.30 1012.88 1013.41 1013.95 1014.42 1014.86 1015.13 1015.48 1015.74 1016.20 1017.14 1017.76 1018.21 1018.38 1018.53 1018.80 1018.84 1018.92 1019.11 1019.29 1019.41 1019.52 1019.49 1019.62 1019.98 1019.96 1019.77 1019.70 1019.65 1019.48 1019.16 1018.87 1018.45 1017.80 1017.08 1016.28 1015.58 1014.65 1013.59 1012.53 1011.61 1010.80 1009.98
1012.15 1012.89 1013.41 1013.84 1014.22 1014.60 1014.79 1015.18 1015.58 1016.08 1016.67 1017.37 1017.78 1018.23 1018.48 1018.62 1018.65 1018.73 1018.98 1019.12 1019.28 1019.31 1019.37 1019.69 1019.98 1020.24 1020.24 1020.01 1019.87 1019.81 1019.61 1019.23 1018.69 1018.09 1017.29 1016.55 1015.73 1014.70 1013.70 1012.83 1012.01 1011.23 1010.54
1012.04 1012.65 1013.23 1013.73 1014.01 1014.31 1014.58 1015.05 1015.36 1015.93 1016.50 1017.06 1017.66 1018.07 1018.27 1018.41 1018.41 1018.52 1018.91 1019.06 1019.17 1019.12 1019.50 1020.01 1020.21 1020.38 1020.38 1020.32 1020.01 1019.83 1019.64 1019.25 1018.56 1017.85 1017.18 1016.48 1015.79 1014.75 1013.82 1013.12 1012.43 1011.67 1011.06
1011.77 1012.44 1012.90 1013.50 1013.89 1014.28 1014.69 1015.22 1015.70 1015.96 1016.36 1016.84 1017.30 1017.56 1017.81 1018.06 1018.42 1018.54 1018.68 1018.95 1019.01 1019.16 1019.70 1020.14 1020.43 1020.53 1020.69 1020.74 1020.54 1019.86 1019.24 1018.72 1018.24 1017.40 1016.73 1016.13 1015.53 1014.77 1014.12 1013.51 1012.83 1012.19 1011.76
1011.46 1012.16 1012.66 1013.15 1013.60 1013.96 1014.43 1015.02 1015.43 1015.81 1016.25 1016.80 1017.12 1017.32 1017.66 1017.96 1018.28 1018.49 1018.78 1019.00 1019.16 1019.24 1019.78 1020.37 1020.55 1020.56 1020.54 1020.64 1020.44 1020.00 1019.30 1018.73 1018.07 1017.21 1016.48 1015.90 1015.52 1014.99 1014.35 1013.82 1013.21 1012.72 1012.31
Wind_Speed
12 10 9 8 7 7 7 6 3 6 5 5 4 4 4 7 9 9 7 9 8 7 7 8 7 7 6 7 7 6 6 5 8 9 7 8 9 12 10 8 9 6 5
14 12 11 10 10 9 6 6 7 6 5 7 5 7 10 9 8 8 8 7 7 7 7 7 8 7 7 7 6 7 7 5 5 13 9 10 11 11 9 8 9 7 6
14 13 12 11 8 7 9 8 7 6 6 6 7 10 9 9 8 7 6 6 7 6 7 6 6 7 6 6 5 6 6 6 5 6 9 8 8 8 11 9 9 8 8
14 12 10 10 11 11 10 8 7 7 7 6 11 10 9 8 8 7 7 6 6 6 6 6 6 7 5 6 7 8 8 8 8 7 8 9 9 10 4 5 8 5 9
14 10 12 11 10 8 8 7 7 8 7 8 11 10 8 8 6 6 6 6 6 7 7 6 6 12 18 16 9 10 9 7 9 8 8 8 9 9 9 4 6 8 9
12 13 12 11 10 7 7 7 8 7 7 10 10 9 7 6 8 11 10 6 6 5 5 6 6 12 13 19 21 21 14 8 8 5 4 8 10 8 6 6 6 8 7
14 13 11 10 9 8 8 8 7 6 7 8 8 8 7 4 8 10 14 4 5 6 6 5 6 7 10 9 14 16 14 17 14 8 9 7 8 7 8 9 8 7 8
13 13 10 9 10 8 8 7 6 5 7 7 7 7 7 4 10 12 13 6 5 7 6 5 6 5 7 10 8 8 9 9 9 7 8 11 9 11 8 8 9 8 7
12 11 10 10 10 8 7 7 5 5 5 6 8 7 7 5 8 10 8 5 5 6 2 4 5 4 13 16 8 9 9 9 11 18 20 19 20 18 7 4 5 6 8
10 9 10 9 8 8 7 6 3 4 5 5 7 6 9 5 6 7 6 4 6 5 7 4 5 6 10 11 6 6 8 9 12 14 12 8 10 8 13 4 5 5 6
11 10 9 9 8 7 6 3 4 5 6 6 7 6 7 6 3 2 5 4 3 4 4 4 3 8 11 11 9 4 5 10 12 8 8 7 7 8 7 7 7 4 6
13 13 11 8 7 6 7 4 5 6 6 4 8 5 4 4 5 2 7 7 6 3 4 4 4 10 10 12 10 12 13 11 4 6 7 7 7 9 9 10 11 10 7
14 11 9 7 7 6 6 5 3 2 4 3 6 6 4 3 1 6 9 11 8 4 4 9 12 11 10 8 13 14 10 5 6 6 8 7 8 9 10 10 12 12 9
13 10 9 9 7 6 4 5 5 4 5 4 5 5 4 2 3 4 4 4 7 7 11 9 9 6 7 7 6 7 5 5 7 5 7 6 8 9 9 9 11 11 11
12 10 9 7 7 7 5 4 5 2 4 5 4 4 5 2 2 2 1 3 4 5 10 3 3 3 4 5 5 5 5 6 5 8 7 8 9 10 11 11 10 11 10
12 9 8 8 6 6 6 5 10 6 9 9 7 7 2 4 3 3 6 5 6 5 2 2 3 4 4 4 5 5 4 10 5 8 8 8 9 9 10 13 11 9 10
12 11 9 9 8 7 5 6 5 4 8 6 3 7 4 3 3 5 8 9 11 2 0 2 2 3 3 4 4 4 5 7 6 6 7 9 9 10 13 12 11 10 10
11 12 10 9 8 7 7 6 5 6 5 3 7 4 4 5 7 7 7 9 4 3 2 2 2 3 2 3 4 3 5 5 6 8 9 9 10 10 12 11 12 11 11
8 8 8 10 9 9 7 7 7 6 6 4 1 3 6 8 7 8 4 1 1 2 3 4 3 3 4 4 4 5 5 5 6 7 8 9 10 10 12 11 11 15 10
7 13 9 7 6 6 6 6 7 7 7 5 5 4 1 3 2 2 2 2 3 2 3 4 4 4 4 4 4 5 5 5 6 7 8 9 10 10 10 12 11 11 10
5 7 11 6 6 5 5 6 5 5 7 8 5 4 8 4 3 4 3 3 3 2 3 4 4 4 5 5 5 5 5 5 5 7 7 8 9 10 11 10 9 11 9
6 6 6 6 5 5 5 5 6 6 7 6 4 4 7 2 2 4 4 3 3 2 2 3 4 4 4 5 5 5 5 5 7 7 8 8 8 9 10 9 9 10 8
6 6 5 3 4 6 5 5 4 5 9 6 6 5 4 3 4 4 4 3 3 2 3 5 5 4 4 5 5 5 5 7 7 6 7 8 8 8 7 9 9 10 8
6 6 6 5 5 5 5 5 5 8 7 7 6 4 4 4 5 5 5 3 3 3 5 5 5 6 5 5 4 4 4 6 6 6 7 5 7 8 8 9 9 11 8
8 6 6 7 5 5 5 5 5 6 6 5 5 4 4 3 4 5 5 3 2 4 7 5 5 7 8 8 8 9 11 9 6 9 4 6 6 9 8 7 8 8 9
6 7 6 5 5 5 5 6 6 6 6 5 5 5 5 4 5 5 4 3 3 4 9 5 6 9 8 6 8 12 10 11 12 14 8 6 5 6 6 7 10 6 8
Wind_Direction
182 184 182 187 191 196 208 219 172 114 112 96 96 75 57 49 44 48 38 29 23 8 2 6 339 346 5 8 358 350 344 339 323 328 326 323 325 318 317 311 318 290 284
182 182 186 184 192 197 190 141 129 143 149 140 122 83 76 66 49 47 37 24 15 356 350 350 354 21 15 2 355 356 343 346 336 319 320 322 319 316 299 311 311 316 320
177 180 184 185 176 144 134 131 139 138 131 82 74 81 74 65 54 40 31 19 1 343 335 1 17 25 30 2 354 351 335 327 306 306 313 309 312 323 322 324 331 328 326
172 173 166 135 139 143 139 139 131 112 101 92 92 85 77 64 52 28 16 5 342 345 337 5 29 54 30 357 357 349 341 332 324 321 315 315 325 320 299 318 328 324 313
159 140 133 133 132 131 124 127 101 92 87 86 102 89 75 58 32 21 3 356 344 345 342 5 39 35 18 5 355 342 329 326 324 327 319 325 327 326 315 323 308 314 309
127 130 132 129 126 134 107 97 89 90 85 100 96 95 81 63 26 20 14 3 339 340 2 26 29 39 8 356 351 343 332 328 331 323 329 324 313 312 317 314 313 320 319
127 129 129 129 127 102 105 101 109 111 102 95 100 99 90 73 29 14 9 2 354 21 59 38 37 25 1 348 336 338 328 341 348 338 317 304 304 301 306 308 312 307 297
129 128 128 119 111 110 114 124 126 120 126 123 116 114 105 47 24 11 2 5 22 49 51 65 62 9 350 343 327 332 327 331 326 318 300 290 277 285 283 279 286 283 280
129 128 119 118 114 116 120 125 128 124 131 138 132 129 111 81 31 11 15 15 28 16 89 84 68 1 351 349 336 324 331 331 327 321 311 298 289 292 298 315 320 321 319
125 116 111 107 112 116 122 123 137 132 134 113 122 127 120 103 46 16 15 31 27 358 329 120 43 18 337 329 330 324 324 321 328 325 324 319 327 316 324 316 290 325 326
109 106 100 106 113 120 118 113 125 121 112 119 132 135 125 125 92 354 36 46 19 338 319 336 344 337 319 324 316 297 273 302 310 311 301 328 325 332 324 317 307 295 307
109 107 111 110 119 115 121 114 138 145 146 152 134 123 133 149 147 251 28 19 337 333 318 319 311 298 307 322 323 313 312 313 302 327 329 330 333 339 332 318 302 298 247
116 119 120 115 116 121 129 153 157 155 141 115 141 138 145 168 160 41 31 2 349 0 334 326 322 287 308 323 323 330 337 339 342 351 341 326 331 320 317 319 317 310 295
124 122 125 126 129 133 93 93 102 94 104 97 85 101 134 152 33 23 24 6 346 355 342 325 312 312 347 354 351 346 345 333 347 332 333 319 325 330 327 329 321 325 325
126 129 132 107 106 99 81 117 115 93 156 134 120 121 123 60 276 215 261 335 321 315 320 313 5 18 9 355 345 337 332 333 342 338 333 336 334 334 329 327 321 325 331
138 144 134 128 123 126 117 80 43 61 70 81 105 129 90 152 198 297 308 301 284 297 312 313 358 17 11 356 347 329 321 342 326 340 335 337 331 331 327 326 325 330 330
150 152 142 139 143 144 131 138 140 357 11 6 38 101 119 186 281 311 325 320 304 42 325 3 24 20 357 351 349 334 315 336 326 339 333 331 330 328 331 328 327 332 337
158 162 155 149 155 155 161 160 152 166 177 232 269 230 218 268 289 306 11 350 26 34 18 333 340 14 346 354 346 328 323 340 353 345 337 332 331 331 329 325 333 333 339
157 154 143 153 161 170 170 172 172 178 179 169 228 329 247 245 275 306 325 163 332 21 12 344 333 21 3 14 355 344 356 354 346 340 338 332 332 333 329 319 332 331 330
134 128 124 140 150 156 162 156 182 169 167 149 185 221 242 165 196 211 199 102 56 27 29 349 341 39 26 30 5 351 4 357 346 345 339 329 329 328 327 321 331 337 337
128 133 138 126 142 163 177 171 175 156 138 169 178 177 166 142 166 137 119 107 101 58 21 351 8 37 27 27 9 355 16 350 333 330 325 319 324 325 323 322 330 339 338
123 136 144 158 172 183 195 169 157 148 137 140 155 164 156 130 109 133 125 115 110 112 45 41 55 40 42 34 10 358 4 338 325 322 318 317 321 316 318 333 336 339 341
135 144 153 154 175 166 152 149 149 124 137 150 157 159 184 176 149 120 134 129 114 109 71 68 70 56 33 30 16 4 348 329 312 301 303 314 313 316 317 341 336 340 348
152 159 156 156 142 143 131 119 124 133 142 153 164 180 171 151 149 130 125 123 115 97 89 91 80 84 59 30 4 338 331 315 298 292 302 289 303 311 338 337 339 339 341
161 156 146 148 150 146 144 138 136 133 130 139 143 138 140 128 145 135 124 107 116 108 97 97 76 76 56 27 359 345 330 328 310 305 305 303 309 341 332 332 339 344 0
124 134 142 146 151 141 131 150 166 162 153 147 155 159 165 158 148 135 121 96 59 115 110 104 92 80 59 19 354 345 345 344 347 346 347 331 344 345 334 337 348 351 3